Weather History for CWWB - May, 2013

Change the Weather History Date:

Thursday, May 23, 2013

  Actual Average Record
Temperature  
Mean Temperature 58 °F -  
Max Temperature 72 °F - - ()
Min Temperature 43 °F - - ()
Degree Days  
Heating Degree Days 7    
Growing Degree Days 8 (Base 50)    
Moisture  
Dew Point 53 °F    
Average Humidity 72    
Maximum Humidity 81    
Minimum Humidity 58    
Precipitation  
Precipitation 0.00 in - - ()
Sea Level Pressure  
Sea Level Pressure 29.75 in    
Wind  
Wind Speed 9 mph ()    
Max Wind Speed 22 mph    
Max Gust Speed 29 mph    
T = Trace of Precipitation, MM = Missing Value Source: Averaged Metar Reports

Daily Weather History Graph

Daily Weather History Graph

Search for Another Location

Airport or City:

Trip Planner

Search our weather history database for the weather conditions in past years. The results will help you decide how hot, cold, wet, or windy it might be!

Date:

Astronomy

May. 23, 2013 Rise Set
Actual Time 5:47 AM EDT 8:45 PM EDT
Civil Twilight 5:13 AM EDT 9:18 PM EDT
Nautical Twilight 4:30 AM EDT 10:02 PM EDT
Astronomical Twilight 3:40 AM EDT 10:53 PM EDT
Moon 7:13 PM EDT (5/23) 4:34 AM EDT (5/23)
Length of Visible Light 16h 05m
Length of Day
14h 57m
Waxing Gibbous, 97% of the Moon is Illuminated
May 23
Waxing Gibbous
May 25
Full
May 31
Last Quarter
Jun 8
New
Jun 16
First Quarter

Hourly Weather History & Observations

Time (EDT) Temp. Windchill Dew Point Humidity Pressure Visibility Wind Dir Wind Speed Gust Speed Precip Events Conditions
12:00 AM 72.0 °F - 59.0 °F 64% 29.65 in - SSW 8.1 mph - N/A   Unknown
1:00 AM 70.3 °F - 59.2 °F 68% 29.66 in - SSW 8.1 mph - N/A   Unknown
2:00 AM 70 °F - 58 °F 58% 29.67 in - South 10.4 mph - -  
2:00 AM 70.2 °F - 58.5 °F 66% 29.67 in - South 10.4 mph - N/A   Unknown
3:00 AM 68.5 °F - 58.8 °F 71% 29.66 in - South 9.2 mph - N/A   Unknown
4:00 AM 66.9 °F - 59.5 °F 77% 29.66 in - South 9.2 mph - N/A   Unknown
5:00 AM 66.0 °F - 59.7 °F 80% 29.66 in - SSW 8.1 mph - N/A   Unknown
6:00 AM 65.5 °F - 59.5 °F 81% 29.67 in - South 6.9 mph - N/A   Unknown
7:00 AM 65.1 °F - 58.1 °F 78% 29.68 in - SW 6.9 mph - N/A   Unknown
8:00 AM 64 °F - 58 °F 73% 29.71 in - SW 9.2 mph - -  
8:00 AM 64.4 °F - 57.6 °F 78% 29.71 in - SW 9.2 mph - N/A   Unknown
9:00 AM 65.8 °F - 56.7 °F 72% 29.71 in - SW 9.2 mph - N/A   Unknown
10:00 AM 66.7 °F - 56.7 °F 70% 29.72 in - SW 6.9 mph - N/A   Unknown
11:00 AM 68.2 °F - 56.3 °F 66% 29.73 in - SW 8.1 mph - N/A   Unknown
12:00 PM 70.5 °F - 55.6 °F 59% 29.72 in - WSW 8.1 mph - N/A   Unknown
1:00 PM 66.4 °F - 57.7 °F 74% 29.73 in - WSW 9.2 mph - N/A   Unknown
2:00 PM 66 °F - 58 °F 70% 29.72 in - WSW 6.9 mph - -  
2:00 PM 66.0 °F - 58.5 °F 77% 29.72 in - WSW 6.9 mph - N/A   Unknown
3:00 PM 66.6 °F - 55.4 °F 67% 29.73 in - WSW 6.9 mph - N/A   Unknown
4:00 PM 63.1 °F - 52.7 °F 69% 29.74 in - NW 15.0 mph - N/A   Unknown
5:00 PM 57.0 °F - 45.7 °F 66% 29.79 in - NNW 19.6 mph 25.3 mph N/A   Unknown
6:00 PM 52.7 °F - 42.3 °F 68% 29.82 in - North 19.6 mph - N/A   Unknown
7:00 PM 49.6 °F - 40.1 °F 70% 29.86 in - NNW 21.9 mph 28.8 mph N/A   Unknown
8:00 PM 47 °F - 39 °F 66% 29.90 in - NNW 19.6 mph - -  
8:00 PM 47.5 °F - 39.2 °F 73% 29.90 in - NNW 19.6 mph 26.5 mph N/A   Unknown
9:00 PM 45.5 °F 37.8 °F 39.7 °F 80% 29.94 in - NNW 19.6 mph 25.3 mph N/A   Unknown
10:00 PM 44.4 °F 36.4 °F 39.0 °F 81% 29.96 in - NNW 19.6 mph 28.8 mph N/A   Unknown
11:00 PM 43.9 °F 35.9 °F 37.9 °F 80% 29.99 in - NNW 18.4 mph 25.3 mph N/A   Unknown